Content
SEND FEEDBACK

Daily
Averages
Monthly
Summary
United States of America

PYGA BEACH, GUAM


Home > North America > United States > Guam
Elevation: 20 feet     Latitude: 13 17N     Longitude: 144 39E

WEATHER
 
SELECT A DAY
Number of Records: 341,716;   Date Range: 1/1/95 - 7/22/14
 
SHARE

PRINT THIS DATA

[ ← Previous Day ]
WEATHER ALMANAC - JANUARY 31, 2013
[ Next Day → ]
[ °C ]   °F
Weather ElementAverageHighLow
Temperature77 °F82.4 °F (11:02 am)73.4 °F (8:52 pm)
Dewpoint72.4 °F75.2 °F (1:15 pm)68 °F (11:18 pm)
Humidity86.1 %100 % (1:15 pm)70 % (11:16 am)
Barometer29.97 in30.02 in (9:02 am)29.92 in (3:28 am)
Wind Speed22.3 mph32.2 mph (12:27 pm)
Wind Gust40.3 mph (12:27 pm)
Weather ElementAverage
Visibility8.7 mi
Wind DirectionNE (41.3 °)

Weather ElementTotal
Precipitation0.11 in
Cooling Degree Days12.9 (Base 65)
Growing Degree Days27.9 (Base 50)
Averaged from 179 records on January 31, 2013
WEATHER CONDITIONS BREAKOUT
WIND DIRECTION BREAKOUT
WEATHER BY HOUR - JANUARY 31, 2013
[ °C ]   °F
Local TimeTemperatureDewpointHumidityBarometerVisibilityWind DirectionWind SpeedGust SpeedPrecipitationEventsConditions
12:11 AM77.0 °F73.4 °F89 %29.96 in10.0 miENE (60°)16.1 mphMostly Cloudy
12:38 AM77.0 °F71.6 °F83 %29.95 in10.0 miENE (60°)19.6 mph25.3 mphMostly Cloudy
12:55 AM77.2 °F72.9 °F86 %29.95 in10.0 miENE (70°)13.8 mph0.00 inMostly Cloudy
1:06 AM77.0 °F73.4 °F89 %29.95 in10.0 miENE (60°)17.3 mphMostly Cloudy
1:27 AM77.0 °F73.4 °F89 %29.95 in10.0 miENE (60°)15.0 mphLight Drizzle
1:34 AM77.0 °F73.4 °F89 %29.94 in10.0 miENE (60°)18.4 mphLight Drizzle
1:36 AM77.0 °F73.4 °F89 %29.94 in10.0 miNE (50°)19.6 mph25.3 mphMostly Cloudy
1:44 AM77.0 °F73.4 °F89 %29.94 in10.0 miNE (50°)16.1 mph25.3 mphMostly Cloudy
1:54 AM77.0 °F73.4 °F89 %29.94 in10.0 miNE (50°)17.3 mphMostly Cloudy
1:55 AM77.5 °F72.9 °F85 %29.94 in10.0 miNE (50°)18.4 mph0.00 inMostly Cloudy
2:04 AM77.0 °F73.4 °F89 %29.94 in10.0 miENE (60°)17.3 mphMostly Cloudy
2:29 AM77.0 °F73.4 °F89 %29.94 in10.0 miENE (60°)18.4 mphMostly Cloudy
2:32 AM77.0 °F71.6 °F83 %29.94 in10.0 miENE (60°)17.3 mph24.2 mphMostly Cloudy
2:33 AM77.0 °F71.6 °F83 %29.94 in10.0 miENE (60°)17.3 mph24.2 mphMostly Cloudy
2:37 AM77.0 °F71.6 °F83 %29.94 in10.0 miENE (60°)19.6 mph25.3 mphMostly Cloudy
2:55 AM77.2 °F71.4 °F82 %29.93 in10.0 miENE (60°)18.4 mphMostly Cloudy
3:28 AM77.0 °F73.4 °F89 %29.92 in10.0 miNE (50°)15.0 mphOvercast
3:41 AM77.0 °F71.6 °F83 %29.93 in10.0 miNE (50°)21.9 mph27.6 mphRainLight Rain
3:42 AM77.0 °F71.6 °F83 %29.92 in10.0 miNE (50°)21.9 mph27.6 mphLight Drizzle
3:51 AM77.0 °F73.4 °F89 %29.93 in10.0 miNE (50°)17.3 mphMostly Cloudy
3:55 AM77.2 °F72.9 °F86 %29.93 in10.0 miENE (60°)17.3 mph0.00 inMostly Cloudy
3:59 AM77.0 °F73.4 °F89 %29.93 in10.0 miENE (60°)17.3 mphMostly Cloudy
4:06 AM77.0 °F73.4 °F89 %29.93 in10.0 miNE (50°)20.7 mph25.3 mphMostly Cloudy
4:07 AM77.0 °F73.4 °F89 %29.93 in10.0 miNE (50°)18.4 mph25.3 mphLight Drizzle
4:18 AM77.0 °F73.4 °F89 %29.93 in10.0 miNE (50°)19.6 mph25.3 mphMostly Cloudy
4:55 AM77.5 °F72.0 °F83 %29.94 in10.0 miNE (50°)19.6 mph0.00 inMostly Cloudy
5:20 AM77.0 °F73.4 °F89 %29.95 in8.0 miNE (50°)20.7 mph25.3 mphRainLight Rain
5:30 AM77.0 °F71.6 °F83 %29.95 in10.0 miNE (50°)19.6 mphMostly Cloudy
5:37 AM77.0 °F71.6 °F83 %29.96 in10.0 miNE (50°)21.9 mph27.6 mphLight Drizzle
5:50 AM77.0 °F71.6 °F83 %29.96 in10.0 miNE (50°)21.9 mph25.3 mphMostly Cloudy
5:53 AM77.0 °F71.6 °F83 %29.96 in10.0 miNE (50°)19.6 mphMostly Cloudy
5:55 AM76.5 °F70.9 °F83 %29.97 in10.0 miNE (50°)19.6 mph0.01 inMostly Cloudy
5:56 AM77.0 °F71.6 °F83 %29.97 in10.0 miNE (50°)18.4 mphMostly Cloudy
6:04 AM77.0 °F71.6 °F83 %29.97 in10.0 miENE (60°)18.4 mphMostly Cloudy
6:06 AM77.0 °F71.6 °F83 %29.97 in10.0 miNE (50°)18.4 mphMostly Cloudy
6:11 AM77.0 °F71.6 °F83 %29.97 in10.0 miNE (50°)19.6 mphMostly Cloudy
6:12 AM77.0 °F71.6 °F83 %29.97 in10.0 miNE (50°)19.6 mphMostly Cloudy
6:26 AM77.0 °F71.6 °F83 %29.97 in10.0 miNE (50°)18.4 mphMostly Cloudy
6:28 AM77.0 °F71.6 °F83 %29.97 in10.0 miNE (50°)18.4 mphMostly Cloudy
6:55 AM77.2 °F71.6 °F83 %29.98 in10.0 miNE (50°)23.0 mph27.6 mphOvercast
7:32 AM77.0 °F71.6 °F83 %30.00 in10.0 miNE (50°)23.0 mphMostly Cloudy
7:33 AM77.0 °F71.6 °F83 %30.00 in10.0 miNE (50°)21.9 mph28.8 mphMostly Cloudy
7:35 AM77.0 °F71.6 °F83 %30.00 in10.0 miNE (50°)21.9 mph28.8 mphMostly Cloudy
7:55 AM77.9 °F70.9 °F79 %30.00 in10.0 miNE (50°)18.4 mph27.6 mphOvercast
8:55 AM78.6 °F72.0 °F80 %30.01 in10.0 miNE (40°)23.0 mph29.9 mphMostly Cloudy
9:02 AM78.8 °F73.4 °F83 %30.02 in8.0 miNE (50°)25.3 mph29.9 mphRainLight Rain
9:04 AM77.0 °F73.4 °F89 %30.01 in7.0 miNE (50°)21.9 mphLight Drizzle
9:14 AM75.2 °F73.4 °F94 %30.02 in5.0 miNNE (30°)20.7 mph28.8 mphRainLight Rain
9:16 AM75.2 °F73.4 °F94 %30.02 in6.0 miNNE (30°)20.7 mph28.8 mphRainLight Rain
9:17 AM75.2 °F73.4 °F94 %30.02 in8.0 miNNE (30°)20.7 mphOvercast
9:35 AM78.8 °F73.4 °F83 %30.02 in10.0 miNE (40°)25.3 mph33.4 mphMostly Cloudy
9:40 AM78.8 °F73.4 °F83 %30.02 in10.0 miNE (40°)26.5 mph33.4 mphMostly Cloudy
9:42 AM78.8 °F73.4 °F83 %30.02 in10.0 miNE (40°)26.5 mph33.4 mphMostly Cloudy
9:44 AM78.8 °F73.4 °F83 %30.02 in10.0 miNE (40°)24.2 mph33.4 mphMostly Cloudy
9:46 AM78.8 °F73.4 °F83 %30.02 in10.0 miNE (40°)24.2 mph33.4 mphMostly Cloudy
9:55 AM79.5 °F73.0 °F80 %30.02 in10.0 miNE (40°)25.3 mph31.1 mph0.02 inMostly Cloudy
10:00 AM78.8 °F73.4 °F83 %30.02 in10.0 miNE (40°)24.2 mph31.1 mphMostly Cloudy
10:35 AM80.6 °F73.4 °F79 %30.01 in10.0 miNE (50°)24.2 mph29.9 mphMostly Cloudy
10:41 AM80.6 °F73.4 °F79 %30.01 in10.0 miNE (50°)24.2 mph29.9 mphMostly Cloudy
10:42 AM80.6 °F73.4 °F79 %30.01 in10.0 miNE (50°)24.2 mph29.9 mphMostly Cloudy
10:44 AM80.6 °F73.4 °F79 %30.01 in10.0 miNE (50°)25.3 mph29.9 mphMostly Cloudy
10:51 AM80.6 °F71.6 °F74 %30.01 in10.0 miNE (40°)25.3 mph32.2 mphScattered Clouds
10:55 AM81.3 °F72.3 °F74 %30.00 in10.0 miNE (50°)23.0 mph32.2 mphScattered Clouds
11:02 AM82.4 °F73.4 °F74 %30.00 in10.0 miNE (50°)26.5 mphMostly Cloudy
11:16 AM82.4 °F71.6 °F70 %30.00 in10.0 miNE (50°)25.3 mph31.1 mphScattered Clouds
11:17 AM82.4 °F71.6 °F70 %30.00 in10.0 miNE (50°)25.3 mph31.1 mphMostly Cloudy
11:27 AM82.4 °F71.6 °F70 %30.00 in10.0 miNE (40°)27.6 mphScattered Clouds
11:29 AM80.6 °F71.6 °F74 %30.00 in10.0 miNE (40°)25.3 mphMostly Cloudy
11:35 AM82.4 °F71.6 °F70 %30.00 in10.0 miNE (40°)25.3 mphMostly Cloudy
11:55 AM81.9 °F72.3 °F73 %29.99 in10.0 miNNE (30°)25.3 mph33.4 mphScattered Clouds
12:06 PM80.6 °F71.6 °F74 %29.98 in10.0 miNNE (30°)18.4 mph29.9 mphMostly Cloudy
12:18 PM80.6 °F73.4 °F79 %29.98 in10.0 miNNE (30°)19.6 mph26.5 mphMostly Cloudy
12:27 PM80.6 °F73.4 °F79 %29.98 in6.0 miNE (40°)32.2 mph40.3 mphHaze
12:28 PM80.6 °F73.4 °F79 %29.98 in5.0 miNE (50°)28.8 mph40.3 mphRainLight Rain
12:36 PM77.0 °F73.4 °F89 %29.98 in4.0 miNE (40°)24.2 mph40.3 mphRainLight Rain
12:39 PM77.0 °F73.4 °F89 %29.98 in8.0 miNE (40°)21.9 mph36.8 mphOvercast
12:55 PM79.2 °F73.2 °F82 %29.96 in10.0 miNE (40°)23.0 mph29.9 mph0.01 inOvercast
1:02 PM78.8 °F73.4 °F83 %29.96 in5.0 miNE (50°)23.0 mphHaze
1:03 PM78.8 °F73.4 °F83 %29.96 in4.0 miNE (50°)23.0 mphRainRain
1:07 PM77.0 °F73.4 °F89 %29.96 in2.5 miNE (50°)24.2 mph32.2 mphRainRain
1:09 PM77.0 °F73.4 °F89 %29.96 in2.0 miENE (60°)24.2 mph32.2 mphRainRain
1:12 PM75.2 °F73.4 °F94 %29.96 in2.5 miENE (60°)24.2 mph32.2 mphRainLight Rain
1:15 PM75.2 °F75.2 °F100 %29.96 in3.0 miNE (50°)24.2 mph32.2 mphRainLight Rain
1:17 PM77.0 °F75.2 °F94 %29.96 in4.0 miNE (50°)20.7 mphRainLight Rain
1:18 PM77.0 °F75.2 °F94 %29.96 in4.0 miNE (50°)21.9 mphRainLight Rain
1:21 PM77.0 °F75.2 °F94 %29.96 in6.0 miNE (40°)24.2 mphRainLight Rain
1:23 PM77.0 °F75.2 °F94 %29.96 in6.0 miNE (40°)24.2 mphOvercast
1:32 PM77.0 °F73.4 °F89 %29.95 in8.0 miNE (40°)21.9 mph27.6 mphMostly Cloudy
1:42 PM77.0 °F75.2 °F94 %29.95 in10.0 miNE (40°)21.9 mph28.8 mphOvercast
1:45 PM78.8 °F75.2 °F89 %29.95 in10.0 miNE (50°)19.6 mph28.8 mphOvercast
1:51 PM78.8 °F73.4 °F83 %29.94 in9.0 miNE (50°)21.9 mph28.8 mphMostly Cloudy
1:53 PM78.8 °F73.4 °F83 %29.94 in6.0 miNE (50°)26.5 mph32.2 mphRainLight Rain
1:55 PM77.4 °F73.9 °F89 %29.94 in6.0 miNE (50°)20.7 mph32.2 mph0.03 inRainLight Rain
1:56 PM77.0 °F73.4 °F89 %29.94 in6.0 miNE (40°)18.4 mph32.2 mphRainLight Rain
2:03 PM77.0 °F73.4 °F89 %29.94 in9.0 miNE (40°)24.2 mphOvercast
2:13 PM78.8 °F73.4 °F83 %29.94 in10.0 miNE (40°)25.3 mphMostly Cloudy
2:29 PM80.6 °F73.4 °F79 %29.93 in10.0 miNE (40°)26.5 mphMostly Cloudy
2:35 PM80.6 °F71.6 °F74 %29.93 in10.0 miNE (40°)28.8 mph34.5 mphMostly Cloudy
2:43 PM80.6 °F71.6 °F74 %29.92 in10.0 miNE (40°)26.5 mph34.5 mphMostly Cloudy
2:55 PM81.0 °F72.1 °F74 %29.92 in10.0 miNE (40°)27.6 mph34.5 mph0.00 inMostly Cloudy
3:55 PM78.8 °F71.4 °F78 %29.92 in10.0 miNE (40°)26.5 mph33.4 mphOvercast
4:15 PM78.8 °F71.6 °F78 %29.93 in10.0 miNE (40°)24.2 mph33.4 mphLight Drizzle
4:25 PM78.8 °F71.6 °F78 %29.93 in9.0 miNNE (30°)26.5 mph33.4 mphOvercast
4:39 PM77.0 °F71.6 °F83 %29.94 in5.0 miNE (40°)27.6 mph32.2 mphRainRain
4:44 PM77.0 °F73.4 °F89 %29.94 in5.0 miNNE (30°)20.7 mph32.2 mphRainLight Rain
4:52 PM77.0 °F73.4 °F89 %29.94 in5.0 miNE (40°)27.6 mph32.2 mphOvercast
4:53 PM77.0 °F73.4 °F89 %29.94 in4.0 miNE (40°)28.8 mph32.2 mphRainLight Rain
4:55 PM75.9 °F73.0 °F91 %29.94 in3.0 miNE (40°)26.5 mph32.2 mph0.02 inRainLight Rain
4:56 PM75.2 °F73.4 °F94 %29.94 in3.0 miNE (40°)23.0 mph32.2 mphRainLight Rain
4:58 PM75.2 °F73.4 °F94 %29.94 in3.0 miNE (40°)23.0 mph32.2 mphRainLight Rain
5:00 PM75.2 °F73.4 °F94 %29.94 in3.0 miNNE (30°)24.2 mph32.2 mphRainLight Rain
5:06 PM75.2 °F73.4 °F94 %29.94 in8.0 miNNE (30°)19.6 mph31.1 mphLight Drizzle
5:07 PM75.2 °F73.4 °F94 %29.94 in9.0 miNNE (30°)18.4 mph31.1 mphOvercast
5:10 PM75.2 °F73.4 °F94 %29.94 in10.0 miNNE (30°)26.5 mph32.2 mphLight Drizzle
5:11 PM75.2 °F73.4 °F94 %29.94 in10.0 miNNE (30°)25.3 mph32.2 mphOvercast
5:19 PM75.2 °F73.4 °F94 %29.94 in6.0 miNE (40°)25.3 mph33.4 mphRainLight Rain
5:20 PM75.2 °F73.4 °F94 %29.95 in6.0 miNE (40°)26.5 mph33.4 mphOvercast
5:21 PM75.2 °F73.4 °F94 %29.95 in6.0 miNE (40°)27.6 mph33.4 mphRainLight Rain
5:25 PM75.2 °F73.4 °F94 %29.95 in6.0 miNNE (30°)23.0 mph32.2 mphRainLight Rain
5:29 PM75.2 °F73.4 °F94 %29.95 in8.0 miNNE (30°)19.6 mph32.2 mphOvercast
5:31 PM75.2 °F73.4 °F94 %29.95 in9.0 miNE (40°)20.7 mph31.1 mphOvercast
5:35 PM75.2 °F73.4 °F94 %29.95 in10.0 miNNE (30°)20.7 mph31.1 mphOvercast
5:36 PM75.2 °F73.4 °F94 %29.95 in10.0 miNNE (30°)21.9 mph31.1 mphOvercast
5:42 PM75.2 °F73.4 °F94 %29.95 in10.0 miNE (40°)23.0 mph29.9 mphOvercast
5:43 PM75.2 °F73.4 °F94 %29.95 in8.0 miNNE (30°)26.5 mph32.2 mphOvercast
5:45 PM75.2 °F73.4 °F94 %29.95 in7.0 miNNE (30°)25.3 mph32.2 mphRainLight Rain
5:49 PM75.2 °F73.4 °F94 %29.95 in6.0 miNNE (30°)24.2 mph32.2 mphLight Drizzle
5:55 PM75.2 °F72.7 °F92 %29.95 in8.0 miNNE (30°)21.9 mph31.1 mph0.01 inRainLight Rain
5:56 PM75.2 °F73.4 °F94 %29.95 in8.0 miNNE (30°)21.9 mph31.1 mphRainLight Rain
6:00 PM75.2 °F73.4 °F94 %29.95 in9.0 miNNE (30°)19.6 mphOvercast
6:04 PM75.2 °F73.4 °F94 %29.96 in8.0 miNE (40°)26.5 mph31.1 mphRainLight Rain
6:22 PM75.2 °F73.4 °F94 %29.96 in8.0 miNNE (30°)23.0 mph32.2 mphRainLight Rain
6:27 PM75.2 °F73.4 °F94 %29.96 in10.0 miNNE (30°)23.0 mph29.9 mphOvercast
6:28 PM75.2 °F71.6 °F89 %29.96 in10.0 miNNE (30°)21.9 mph29.9 mphOvercast
6:37 PM75.2 °F73.4 °F94 %29.96 in9.0 miNNE (30°)20.7 mph28.8 mphRainLight Rain
6:42 PM75.2 °F73.4 °F94 %29.96 in8.0 miNNE (30°)24.2 mph28.8 mphRainLight Rain
6:46 PM75.2 °F71.6 °F89 %29.96 in9.0 miNNE (30°)21.9 mph28.8 mphRainLight Rain
6:48 PM75.2 °F71.6 °F89 %29.96 in10.0 miNNE (30°)21.9 mphRainLight Rain
6:49 PM75.2 °F71.6 °F89 %29.96 in10.0 miNNE (30°)20.7 mph28.8 mphMostly Cloudy
6:50 PM75.2 °F71.6 °F89 %29.96 in10.0 miNNE (30°)24.2 mph31.1 mphMostly Cloudy
6:55 PM75.4 °F72.1 °F90 %29.96 in10.0 miNNE (30°)23.0 mph33.4 mph0.01 inMostly Cloudy
6:56 PM75.2 °F71.6 °F89 %29.96 in10.0 miNNE (30°)24.2 mph33.4 mphMostly Cloudy
7:06 PM75.2 °F73.4 °F94 %29.96 in10.0 miNNE (20°)21.9 mph35.7 mphOvercast
7:17 PM75.2 °F71.6 °F89 %29.97 in9.0 miNNE (20°)26.5 mph35.7 mphLight Drizzle
7:25 PM75.2 °F71.6 °F89 %29.97 in10.0 miNNE (30°)23.0 mphOvercast
7:47 PM75.2 °F71.6 °F89 %29.98 in10.0 miNE (40°)24.2 mph34.5 mphRainLight Rain
7:55 PM74.8 °F72.1 °F91 %29.99 in8.0 miNNE (30°)23.0 mph34.5 mph0.00 inRainLight Rain
7:59 PM75.2 °F71.6 °F89 %29.98 in8.0 miNNE (20°)23.0 mph31.1 mphRainLight Rain
8:05 PM75.2 °F71.6 °F89 %29.99 in9.0 miNE (40°)21.9 mph28.8 mphOvercast
8:08 PM75.2 °F71.6 °F89 %29.99 in10.0 miNE (40°)21.9 mph28.8 mphOvercast
8:11 PM75.2 °F71.6 °F89 %29.99 in10.0 miNE (40°)24.2 mph29.9 mphOvercast
8:32 PM75.2 °F71.6 °F89 %30.00 in8.0 miNE (40°)27.6 mph38.0 mphRainLight Rain
8:37 PM75.2 °F71.6 °F89 %30.00 in8.0 miNE (40°)24.2 mph38.0 mphRainLight Rain
8:40 PM75.2 °F71.6 °F89 %30.01 in9.0 miNE (40°)21.9 mph28.8 mphOvercast
8:52 PM73.4 °F71.6 °F94 %30.01 in8.0 miNNE (30°)19.6 mph29.9 mphDrizzle
8:53 PM73.4 °F71.6 °F94 %30.01 in8.0 miNNE (30°)20.7 mph29.9 mphLight Drizzle
8:55 PM73.8 °F71.6 °F93 %30.01 in8.0 miNE (40°)17.3 mph29.9 mph0.00 inLight Drizzle
8:58 PM73.4 °F71.6 °F94 %30.01 in9.0 miNNE (30°)17.3 mph27.6 mphLight Drizzle
9:02 PM73.4 °F71.6 °F94 %30.01 in10.0 miNNE (30°)20.7 mph27.6 mphOvercast
9:05 PM75.2 °F71.6 °F89 %30.01 in10.0 miNNE (30°)19.6 mph26.5 mphMostly Cloudy
9:07 PM75.2 °F71.6 °F89 %30.01 in10.0 miNNE (30°)23.0 mph27.6 mphMostly Cloudy
9:09 PM75.2 °F71.6 °F89 %30.01 in10.0 miNNE (30°)19.6 mph27.6 mphMostly Cloudy
9:11 PM75.2 °F71.6 °F89 %30.01 in10.0 miNNE (30°)21.9 mph27.6 mphMostly Cloudy
9:17 PM75.2 °F71.6 °F89 %30.01 in10.0 miNNE (20°)23.0 mph32.2 mphMostly Cloudy
9:27 PM75.2 °F71.6 °F89 %30.02 in10.0 miNNE (30°)21.9 mph31.1 mphMostly Cloudy
9:46 PM75.2 °F69.8 °F83 %30.02 in10.0 miNE (40°)27.6 mph33.4 mphRainLight Rain
9:55 PM74.8 °F70.5 °F86 %30.02 in10.0 miNNE (30°)18.4 mph33.4 mph0.00 inLight Drizzle
9:56 PM75.2 °F69.8 °F83 %30.02 in10.0 miNNE (30°)20.7 mph33.4 mphOvercast
10:41 PM75.2 °F69.8 °F83 %30.02 in10.0 miNNE (30°)21.9 mph28.8 mphMostly Cloudy
10:55 PM75.4 °F69.4 °F82 %30.02 in10.0 miNNE (30°)20.7 mphMostly Cloudy
11:01 PM75.2 °F69.8 °F83 %30.02 in10.0 miNNE (30°)25.3 mph32.2 mphMostly Cloudy
11:18 PM77.0 °F68.0 °F74 %30.02 in10.0 miNE (40°)20.7 mph35.7 mphMostly Cloudy
11:19 PM77.0 °F68.0 °F74 %30.02 in10.0 miNE (40°)21.9 mph35.7 mphOvercast
11:38 PM77.0 °F68.0 °F74 %30.01 in10.0 miNE (40°)23.0 mph32.2 mphOvercast
11:40 PM77.0 °F68.0 °F74 %30.01 in10.0 miNNE (30°)21.9 mphOvercast
11:42 PM77.0 °F68.0 °F74 %30.01 in10.0 miNE (40°)21.9 mph31.1 mphOvercast
11:54 PM77.0 °F69.8 °F78 %30.01 in10.0 miNNE (30°)24.2 mph32.2 mphOvercast
11:55 PM77.0 °F69.6 °F78 %30.01 in10.0 miNNE (30°)23.0 mph32.2 mphOvercast
11:59 PM77.0 °F69.8 °F78 %30.01 in10.0 miNNE (30°)23.0 mphOvercast
Hourly data recorded from PGUA, located miles away from Pyga Beach, Guam







STORIES FROM OUR PARTNERS